EW2719 Weather Reports


time (UTC)temp
C
wind
direction
speed
KPH
gust
KPH
rain 1hr
cm
rain 24hr
cm
rain mn
cm
humidity
%
barometer
mb
20260505173015 10 96 0.0 4.8 0.00 0.00 0.00 70 1011.4
20260505171513 10 116 0.0 4.8 0.00 0.00 0.00 69 1011.5
20260505170012 10 117 1.6 6.4 0.00 0.00 0.00 68 1011.3
20260505164512 11 122 1.6 8.0 0.00 0.00 0.00 67 1011.2
20260505163011 11 117 3.2 9.7 0.00 0.00 0.00 67 1011.2
20260505161511 11 127 3.2 11.3 0.00 0.00 0.00 68 1011.2
20260505153009 12 100 1.6 11.3 0.00 0.00 0.00 67 1011.1
20260505151534 11 103 1.6 11.3 0.00 0.00 0.00 68 1010.9
20260505124613 14 67 1.6 8.0 0.00 0.00 0.00 46 1011.0
20260505123101 13 222 6.4 14.5 0.00 0.00 0.00 44 1011.1
20260505121557 13 12 4.8 12.9 0.00 0.00 0.00 45 1011.2
20260505120105 13 355 3.2 16.1 0.00 0.00 0.00 49 1011.1
20260505114558 13 311 1.6 9.7 0.00 0.00 0.00 52 1011.2
20260505113113 13 345 0.0 8.0 0.00 0.00 0.00 51 1011.2
20260505111555 13 131 0.0 3.2 0.00 0.00 0.00 53 1011.2
20260505101548 12 332 3.2 14.5 0.00 0.00 0.00 59 1011.4
20260505100047 13 5 8.0 16.1 0.00 0.00 0.00 57 1011.4
20260505094543 12 28 4.8 12.9 0.00 0.00 0.00 66 1011.6
20260505093043 11 327 3.2 14.5 0.00 0.00 0.00 66 1011.5
20260505091539 11 9 1.6 8.0 0.00 0.00 0.00 66 1011.4
20260505090036 11 32 3.2 12.9 0.00 0.00 0.00 66 1011.4
20260505084543 10 328 1.6 12.9 0.00 0.00 0.00 69 1011.5
20260505083028 10 355 6.4 14.5 0.00 0.00 0.00 70 1011.5
20260505081525 10 338 8.0 17.7 0.00 0.00 0.00 72 1011.4
20260505080024 9 360 11.3 17.7 0.00 0.00 0.00 73 1011.3
20260505074516 9 343 11.3 20.9 0.00 0.00 0.00 74 1011.3
20260505073012 8 5 14.5 22.5 0.00 0.00 0.00 77 1011.4
20260505071507 8 348 11.3 24.1 0.00 0.00 0.00 77 1011.2
20260505070004 8 355 14.5 25.7 0.00 0.00 0.00 77 1011.3
20260505064603 8 349 12.9 24.1 0.00 0.00 0.00 82 1011.1
20260505063102 7 344 11.3 22.5 0.00 0.00 0.00 88 1011.2
20260505061557 7 327 14.5 24.1 0.00 0.00 0.00 89 1011.3
20260505060057 7 324 14.5 20.9 0.00 0.00 0.00 94 1011.3
20260505054546 7 313 9.7 17.7 0.00 0.00 0.00 94 1011.2
20260505053106 6 289 8.0 17.7 0.00 0.00 0.00 95 1011.2
20260505051537 6 284 8.0 17.7 0.00 0.00 0.00 95 1011.0
20260505041521 4 285 9.7 16.1 0.00 0.03 0.00 94 1010.8
20260505040018 4 254 4.8 12.9 0.00 0.03 0.00 94 1010.8
20260505034524 3 237 4.8 11.3 0.00 0.03 0.00 94 1010.8
20260505033015 3 223 4.8 8.0 0.00 0.03 0.00 94 1010.9
20260505031515 3 254 8.0 12.9 0.00 0.03 0.00 94 1010.8
20260505030012 3 256 4.8 9.7 0.00 0.03 0.00 94 1011.0
20260505024511 3 246 4.8 11.3 0.00 0.05 0.00 93 1011.0
20260505023008 4 263 8.0 14.5 0.00 0.05 0.00 93 1011.1
20260505021504 4 263 6.4 14.5 0.00 0.05 0.00 93 1011.1
20260505020003 4 268 8.0 14.5 0.00 0.05 0.00 93 1011.2
20260505014503 4 272 8.0 12.9 0.00 0.13 0.00 93 1011.2
20260505013102 5 267 8.0 14.5 0.00 0.13 0.00 93 1011.3
20260505011611 5 264 4.8 12.9 0.00 0.13 0.00 93 1011.4
20260505010055 5 239 4.8 11.3 0.00 0.13 0.00 92 1011.5
20260505004603 5 241 3.2 11.3 0.00 0.23 0.00 92 1011.6
20260505003055 5 248 6.4 12.9 0.00 0.23 0.00 92 1011.8
20260505001605 5 246 3.2 11.3 0.00 0.23 0.00 92 1011.8
20260505000105 5 259 6.4 11.3 0.00 0.23 0.00 92 1011.6
20260504234547 5 254 3.2 8.0 0.00 0.25 0.00 91 1011.3
20260504233102 6 273 4.8 16.1 0.00 0.25 0.00 92 1011.4
20260504231545 5 285 8.0 16.1 0.00 0.25 0.00 91 1011.5
20260504230042 6 273 9.7 16.1 0.00 0.25 0.00 91 1011.5
20260504224543 6 300 11.3 19.3 0.00 0.28 0.00 91 1011.5
20260504223039 6 293 11.3 19.3 0.00 0.28 0.00 91 1011.6
20260504221535 5 306 8.0 14.5 0.00 0.28 0.00 90 1011.6
20260504220034 6 275 9.7 16.1 0.00 0.28 0.00 90 1011.7
20260504214529 6 274 9.7 16.1 0.00 0.43 0.28 89 1011.9
20260504213032 6 276 8.0 16.1 0.00 0.43 0.28 89 1011.8
20260504211525 6 279 8.0 16.1 0.00 0.43 0.28 89 1011.8
20260504210023 6 284 8.0 14.5 0.00 0.43 0.28 88 1011.9
20260504204524 6 269 9.7 16.1 0.00 0.69 0.28 88 1011.8
20260504203018 7 269 6.4 16.1 0.00 0.69 0.28 87 1011.8
20260504201516 7 275 9.7 17.7 0.00 0.69 0.28 86 1011.7
20260504200015 7 298 9.7 16.1 0.00 0.69 0.28 85 1011.8
20260504194513 8 305 9.7 16.1 0.00 0.69 0.28 84 1011.7
20260504193013 8 310 11.3 20.9 0.00 0.69 0.28 84 1011.7
20260504191516 8 302 6.4 17.7 0.00 0.69 0.28 84 1011.6
20260504190011 8 313 11.3 17.7 0.00 0.69 0.28 83 1011.5
20260504184510 8 301 11.3 20.9 0.00 0.71 0.28 83 1011.4
20260504183008 9 284 11.3 22.5 0.00 0.71 0.28 82 1011.4
20260504181507 9 281 12.9 24.1 0.00 0.71 0.28 81 1011.4
20260504180005 9 303 17.7 29.0 0.00 0.71 0.28 78 1011.3
20260504174507 10 293 17.7 25.7 0.00 0.71 0.28 77 1011.2